Wind_Speed
14 14 13 13 13 13 13 13 13 13 12 10 10 9 9 9 9 9 8 8 7 6 5 5 3 3 3 3 3 4 4 5 6 7 7 5 5 5 4 4 4 3 3 2 2 3 2 2 2
15 14 13 13 14 15 14 13 13 13 13 12 11 10 9 10 10 9 9 8 8 7 7 6 5 4 4 4 3 4 4 5 6 7 6 5 4 4 4 3 3 3 3 3 3 2 2 2 2
14 14 13 14 16 16 15 15 14 13 13 12 11 11 10 10 11 10 9 9 9 7 7 6 5 5 5 4 4 4 5 5 6 6 5 4 3 3 3 4 3 4 4 3 2 3 3 2 2
14 14 15 16 17 17 16 15 15 13 13 12 12 12 11 11 11 11 10 10 10 9 8 6 6 6 5 5 4 3 5 5 6 6 5 4 4 4 4 4 4 4 4 3 2 3 4 3 3
13 14 16 16 16 16 16 15 15 13 13 13 13 12 12 11 11 11 11 11 10 9 9 8 6 6 6 5 4 4 5 5 6 6 5 5 4 4 4 3 3 4 3 2 2 3 4 4 3
12 13 15 16 16 16 15 15 15 14 13 13 13 12 12 12 12 12 12 11 10 10 9 9 8 7 6 6 6 5 4 4 5 5 5 5 4 4 4 3 3 3 2 2 2 3 4 4 3
11 12 14 15 15 15 15 14 14 14 13 13 13 12 12 12 12 12 12 11 10 10 9 9 9 9 8 6 6 5 5 5 5 5 5 5 5 4 4 3 2 2 3 3 2 3 3 4 3
10 13 14 14 14 14 14 14 14 14 14 13 12 12 13 13 12 12 12 11 10 10 9 9 9 9 8 7 6 6 6 6 6 5 5 5 4 4 4 3 3 3 3 3 3 3 3 3 3
11 12 12 13 12 13 13 13 13 14 14 13 12 12 13 12 12 12 11 11 10 9 9 8 9 8 8 8 7 7 6 7 6 5 5 4 3 4 3 2 2 2 2 2 2 3 2 2 2
11 12 12 12 11 12 12 12 12 13 13 13 13 13 12 12 12 12 12 11 10 10 9 8 8 8 8 7 7 7 7 7 6 5 4 3 4 4 2 1 2 2 2 1 2 1 1 1 0
10 11 10 11 11 11 12 12 12 12 13 13 13 13 13 12 12 12 12 11 11 11 11 10 8 8 8 7 7 8 7 6 5 5 4 4 3 3 2 2 2 1 1 1 1 0 1 2 1
8 9 9 10 10 10 10 11 11 12 12 13 13 12 12 11 11 11 11 11 11 11 11 10 9 8 7 7 7 7 7 6 6 4 3 3 3 3 2 2 1 1 1 0 0 0 1 2 2
8 9 9 9 11 11 10 10 11 11 11 12 12 12 11 11 10 11 11 11 11 11 11 10 9 8 7 7 7 6 6 6 6 5 3 3 2 2 1 1 1 1 1 0 1 1 2 2 2
6 7 8 8 9 10 11 11 10 11 11 12 12 12 11 10 10 10 10 11 11 11 10 10 9 9 8 7 6 6 5 5 4 4 3 3 2 1 1 1 0 0 0 1 2 2 3 3 3
5 5 6 7 8 9 9 10 11 11 10 10 11 11 11 10 10 10 10 10 10 10 10 10 10 9 8 7 6 6 6 5 4 4 4 3 2 2 1 1 1 1 1 2 3 3 4 4 4
2 4 4 6 8 9 9 9 10 11 10 9 9 10 10 10 10 9 9 9 9 10 10 9 9 9 8 8 6 6 6 5 5 5 4 3 2 2 1 1 1 2 3 3 4 4 4 4 4
1 2 3 5 7 8 8 8 9 10 10 9 9 9 9 9 9 9 9 8 8 8 9 9 9 9 8 8 7 6 6 5 5 5 4 3 2 2 2 2 3 3 3 3 3 4 4 4 5
1 1 3 4 6 6 7 7 8 9 8 8 9 9 9 8 8 8 8 8 7 7 7 7 8 8 8 7 7 7 6 5 5 5 4 3 3 2 2 2 3 4 3 4 4 4 5 5 5
1 2 2 3 4 6 7 7 7 7 7 7 8 8 8 7 8 7 8 7 7 6 6 6 7 7 6 6 6 6 6 6 5 5 5 4 4 3 3 3 3 3 3 4 4 4 5 5 6
3 3 1 3 4 6 8 7 6 6 6 7 7 7 7 7 7 7 7 7 6 6 6 5 6 5 5 5 5 5 6 6 6 5 5 5 5 5 4 4 3 4 4 4 4 4 5 6 7
5 5 3 3 5 7 8 7 7 6 7 7 6 7 7 6 6 7 7 6 6 6 5 5 4 4 4 5 5 5 6 6 6 5 6 5 6 6 5 4 4 5 4 5 5 5 6 6 7
7 6 7 7 8 9 9 9 6 7 8 8 7 6 6 6 6 6 6 5 6 6 5 5 4 4 4 5 5 5 5 6 6 5 6 6 6 6 6 6 6 6 6 6 6 6 6 6 6
8 8 10 10 10 11 11 10 7 7 8 8 7 6 6 6 6 6 6 5 5 5 5 5 5 4 4 5 6 5 5 6 6 6 7 7 7 7 7 7 7 7 7 7 7 7 7 7 7
10 11 12 11 12 13 11 11 9 8 8 8 8 7 6 5 6 6 5 5 5 5 5 5 5 5 5 6 6 6 6 7 7 7 7 7 8 8 8 8 7 8 8 8 8 8 8 8 8
13 13 13 13 13 13 12 13 10 8 8 9 8 8 7 6 6 6 6 5 5 5 5 6 6 6 6 6 7 7 8 8 8 8 9 9 9 9 9 9 8 9 9 9 9 9 10 9 8
15 16 16 15 15 14 13 13 11 9 9 10 10 10 9 7 6 7 8 7 7 6 6 7 8 8 8 8 8 8 9 9 9 10 10 11 10 11 10 10 10 10 10 10 10 10 10 10 10
16 17 17 17 17 17 15 13 12 11 11 12 12 11 9 9 9 9 9 9 9 8 8 8 9 9 9 10 10 10 11 11 11 12 12 11 12 12 12 12 12 12 13 12 12 11 11 11 11
16 17 19 20 19 19 17 15 14 14 14 13 13 11 10 10 10 10 11 10 10 10 10 10 10 11 12 12 12 12 12 13 13 13 14 14 14 14 14 14 15 14 13 13 13 13 13 13 13
18 18 19 21 21 20 19 18 15 15 17 16 15 13 12 12 12 12 11 12 12 12 11 11 11 12 13 13 14 14 14 15 15 16 16 15 14 14 14 14 14 15 15 15 14 14 14 14 14
20 20 21 22 21 22 22 20 17 17 17 18 17 16 15 14 14 14 12 13 14 14 14 13 14 14 15 15 15 16 16 16 16 16 16 15 15 15 14 14 15 16 16 16 15 15 15 15 16
Wind_Direction
74 68 65 65 62 59 55 51 49 48 47 47 46 47 49 51 53 57 54 53 61 65 64 66 85 106 118 128 132 143 151 160 163 163 159 157 157 159 156 159 155 151 159 156 158 175 190 202 203
72 68 64 61 59 58 54 50 48 50 49 48 48 49 52 52 50 54 56 57 64 67 66 68 76 96 125 136 135 141 151 160 160 161 158 151 150 158 161 159 157 154 157 150 140 151 180 187 177
70 69 63 63 60 56 53 49 48 48 48 47 46 54 56 51 50 53 55 53 58 64 68 69 70 85 106 120 127 140 148 154 156 158 154 143 144 153 147 134 135 144 148 148 146 143 157 162 155
71 70 66 61 56 50 47 46 45 47 47 48 47 53 56 53 52 52 51 49 53 63 68 72 71 81 98 109 121 142 152 150 153 155 154 152 154 150 147 139 130 146 147 146 159 158 157 161 153
65 66 63 58 55 49 44 41 43 44 46 48 49 52 55 53 50 49 50 51 54 61 67 73 73 85 91 95 103 119 140 148 154 154 151 154 157 143 141 137 133 143 143 165 190 172 163 166 152
67 63 56 52 50 49 46 42 43 44 46 49 50 51 53 50 48 47 50 54 56 58 65 71 82 80 78 86 93 95 122 139 147 153 155 151 150 148 143 132 128 129 126 130 164 163 160 163 156
70 63 55 50 47 49 49 45 43 48 48 49 49 49 49 46 44 43 47 52 57 58 63 71 77 80 83 84 86 90 105 120 132 138 137 141 145 138 134 141 128 114 114 117 129 158 159 163 172
70 62 54 49 50 50 48 46 47 47 45 45 46 48 48 42 43 43 46 53 57 60 64 69 70 73 75 81 89 92 101 110 116 122 130 139 136 130 122 122 122 114 112 117 111 118 142 154 174
67 57 50 45 47 51 53 50 47 47 44 42 44 46 45 41 42 44 48 52 55 57 59 66 68 72 74 77 86 97 99 104 108 116 125 129 132 131 131 132 138 135 108 110 118 116 109 142 157
60 50 43 40 45 51 55 53 49 45 44 42 44 45 44 42 42 42 45 50 56 59 57 61 65 66 69 77 81 93 96 98 104 113 112 116 120 121 129 148 170 161 121 102 116 123 66 60 122
56 50 41 37 43 48 50 50 49 46 42 41 40 41 44 44 44 44 44 48 52 53 54 58 61 63 69 80 84 87 87 89 96 106 112 116 116 116 118 135 159 142 124 122 143 111 6 356 326
62 55 48 38 37 41 43 44 43 43 39 39 37 37 42 45 45 46 47 48 52 54 55 53 55 61 69 77 78 75 81 87 90 94 97 99 107 113 115 116 107 93 82 133 195 296 334 336 336
70 60 50 44 37 35 35 39 40 36 35 38 37 36 39 41 43 45 47 51 51 53 55 54 55 60 66 73 67 70 75 80 85 84 87 106 122 105 89 119 85 98 138 194 258 286 306 316 321
76 66 53 44 38 33 36 38 31 31 32 35 36 35 35 38 41 41 44 47 49 51 52 53 56 59 60 59 60 66 69 73 75 74 79 91 104 111 118 91 46 15 206 249 266 276 294 304 308
82 66 56 44 36 33 33 32 28 28 33 32 30 30 33 36 37 37 39 42 46 49 50 52 54 57 59 58 61 66 64 56 61 66 68 72 73 75 64 22 312 303 285 267 264 276 285 299 303
97 61 47 33 29 25 17 20 23 24 24 23 25 29 32 35 37 37 36 36 43 48 49 50 52 56 58 58 61 66 58 67 67 62 56 59 61 47 22 355 287 291 296 276 274 283 282 292 296
111 45 27 28 19 17 10 10 14 19 21 21 23 25 28 31 35 36 34 34 38 44 47 48 49 54 56 55 62 66 57 66 60 57 53 40 32 16 348 317 294 301 298 287 297 292 285 284 287
166 16 19 18 19 6 352 356 1 8 18 22 21 18 19 26 28 29 29 29 31 39 44 46 46 50 52 51 54 55 54 52 42 41 45 39 26 9 356 327 308 307 296 294 296 295 285 282 279
205 264 319 6 4 348 340 345 355 3 6 3 6 9 12 18 21 21 20 23 27 31 34 36 38 41 45 49 49 47 41 38 32 22 23 26 21 12 16 8 352 337 323 310 303 299 292 289 285
237 259 321 341 326 323 330 337 342 346 346 348 359 359 3 13 19 19 15 15 17 22 27 28 28 31 34 37 37 34 29 26 21 14 13 9 4 357 347 348 351 343 340 333 323 310 299 292 289
234 248 253 292 301 306 314 319 318 331 335 342 344 347 346 359 9 13 6 2 3 7 11 11 13 21 22 22 18 16 16 9 6 2 0 358 357 356 352 345 344 343 337 327 320 315 306 298 295
234 244 259 266 279 291 296 302 308 318 328 333 329 324 332 349 357 1 355 346 349 352 350 350 356 5 1 358 358 354 356 358 358 353 348 344 347 347 344 340 341 340 332 324 318 313 304 300 301
235 244 258 269 277 278 282 286 296 298 311 320 328 330 329 341 349 355 352 343 339 338 338 341 343 344 343 341 344 346 342 341 341 339 335 334 335 338 338 333 329 327 326 321 317 319 313 309 306
236 241 249 261 270 270 276 274 283 289 302 309 319 333 336 340 341 339 339 332 329 330 329 330 329 326 330 334 333 333 332 328 326 325 323 318 319 321 327 327 321 318 316 315 316 315 316 314 311
236 244 251 257 265 268 272 272 277 285 289 293 302 306 324 325 325 322 319 315 314 320 318 316 314 310 312 317 320 322 319 318 315 311 308 305 308 311 312 315 314 314 314 311 309 310 308 305 303
239 248 256 261 266 268 269 271 272 278 284 287 294 302 315 318 303 303 303 298 294 301 303 304 302 300 301 305 308 310 309 309 311 308 304 299 301 302 304 308 308 310 310 309 304 301 302 301 301
241 248 258 263 266 269 270 276 275 279 287 288 290 296 298 297 289 292 293 292 292 294 291 296 295 296 298 300 302 303 305 305 306 304 304 300 296 297 301 306 305 310 311 307 302 298 300 302 301
246 251 254 258 263 266 266 268 276 280 280 280 283 284 285 282 283 290 291 288 286 289 291 292 291 294 295 295 296 299 301 301 301 300 300 299 297 295 294 296 300 304 307 309 305 299 298 300 300
247 252 254 260 265 265 266 266 273 277 277 278 278 281 282 282 281 284 289 287 285 286 289 291 290 291 291 291 291 294 295 297 298 297 297 298 298 298 293 294 298 301 303 304 303 300 296 296 296
250 254 259 263 263 264 267 271 274 276 276 275 273 278 277 278 278 279 283 285 288 289 290 290 289 289 288 289 289 291 291 292 294 296 297 296 297 296 292 293 298 300 300 301 300 297 296 295 292
Height
5902 5901 5901 5901 5900 5899 5897 5897 5896 5895 5894 5893 5892 5892 5891 5890 5890 5891 5889 5886 5885 5884 5883 5883 5882 5882 5883 5883 5884 5884 5885 5886 5887 5888 5889 5889 5890 5891 5891 5892 5892 5892 5893 5893 5893 5892 5892 5892 5891
5903 5902 5903 5903 5901 5899 5899 5898 5897 5897 5895 5894 5893 5892 5891 5890 5890 5889 5888 5887 5886 5885 5884 5883 5882 5881 5882 5883 5884 5885 5885 5886 5887 5888 5889 5890 5890 5891 5892 5892 5892 5892 5893 5893 5893 5893 5892 5892 5891
5904 5904 5905 5903 5901 5900 5900 5899 5898 5898 5897 5895 5894 5893 5893 5892 5891 5889 5888 5887 5886 5885 5885 5883 5883 5882 5882 5883 5884 5885 5885 5886 5887 5888 5889 5890 5890 5891 5892 5892 5892 5892 5893 5893 5893 5893 5893 5892 5891
5906 5906 5906 5904 5902 5902 5901 5901 5900 5899 5898 5897 5895 5894 5893 5893 5892 5890 5889 5888 5887 5886 5885 5884 5884 5883 5883 5883 5884 5884 5885 5886 5887 5888 5889 5890 5890 5891 5892 5892 5892 5892 5892 5893 5893 5893 5893 5892 5892
5908 5908 5906 5905 5904 5903 5903 5902 5901 5901 5900 5898 5897 5896 5895 5894 5892 5891 5890 5889 5888 5887 5886 5885 5885 5884 5884 5884 5884 5884 5885 5886 5887 5888 5889 5890 5891 5891 5892 5892 5892 5892 5892 5892 5892 5893 5893 5892 5892
5909 5908 5908 5906 5906 5905 5904 5904 5903 5902 5901 5900 5898 5897 5896 5895 5893 5892 5891 5890 5889 5888 5887 5886 5885 5885 5884 5884 5884 5884 5885 5886 5887 5888 5889 5890 5891 5892 5892 5892 5892 5892 5892 5892 5892 5892 5892 5892 5892
5911 5909 5908 5907 5907 5906 5906 5906 5905 5903 5902 5901 5900 5899 5897 5896 5895 5893 5893 5892 5891 5890 5889 5888 5887 5886 5885 5885 5885 5885 5885 5886 5887 5888 5889 5890 5891 5892 5892 5892 5892 5892 5892 5892 5892 5892 5892 5892 5892
5911 5912 5910 5909 5909 5908 5908 5907 5906 5905 5904 5903 5902 5900 5899 5898 5896 5895 5894 5893 5892 5891 5890 5890 5889 5888 5887 5887 5886 5886 5886 5887 5888 5889 5890 5891 5891 5891 5892 5892 5892 5892 5892 5892 5892 5892 5891 5891 5892
5913 5914 5912 5911 5911 5910 5909 5909 5907 5906 5905 5904 5903 5902 5901 5899 5898 5897 5896 5895 5894 5893 5892 5891 5890 5890 5889 5889 5888 5888 5888 5888 5889 5890 5890 5891 5891 5891 5892 5892 5892 5892 5892 5892 5892 5892 5891 5892 5892
5915 5914 5914 5913 5912 5912 5911 5910 5909 5908 5907 5906 5904 5903 5902 5901 5899 5898 5897 5896 5895 5894 5893 5892 5892 5891 5891 5890 5890 5889 5889 5889 5890 5890 5891 5891 5891 5892 5892 5892 5892 5892 5892 5892 5892 5892 5892 5892 5892
5916 5915 5915 5914 5913 5913 5912 5911 5911 5909 5908 5907 5906 5905 5904 5903 5901 5900 5899 5898 5896 5895 5894 5893 5893 5892 5892 5891 5891 5891 5891 5891 5891 5891 5891 5891 5892 5892 5892 5892 5892 5892 5892 5892 5892 5892 5892 5892 5892
5917 5916 5916 5915 5914 5914 5913 5912 5912 5911 5910 5909 5907 5906 5905 5904 5903 5902 5901 5899 5898 5897 5896 5895 5894 5894 5893 5893 5892 5892 5892 5892 5892 5892 5892 5892 5892 5892 5892 5892 5892 5892 5892 5892 5892 5892 5892 5892 5892
5918 5918 5917 5916 5915 5914 5914 5913 5913 5912 5911 5910 5909 5907 5906 5905 5904 5903 5902 5901 5900 5898 5897 5896 5895 5895 5894 5894 5893 5893 5893 5893 5893 5892 5892 5892 5892 5892 5892 5892 5892 5892 5892 5892 5892 5892 5892 5891 5891
5919 5918 5918 5917 5916 5916 5916 5915 5914 5913 5911 5910 5910 5908 5907 5906 5905 5904 5903 5902 5901 5900 5899 5898 5897 5896 5895 5895 5894 5894 5894 5893 5893 5893 5893 5892 5892 5892 5892 5892 5892 5892 5892 5892 5891 5891 5891 5890 5890
5919 5919 5918 5917 5917 5917 5917 5916 5915 5914 5912 5911 5911 5910 5908 5907 5906 5905 5904 5903 5902 5901 5900 5899 5898 5897 5896 5896 5895 5894 5894 5894 5893 5893 5893 5892 5892 5892 5892 5892 5892 5892 5891 5891 5890 5890 5890 5889 5889
5919 5919 5919 5918 5917 5917 5918 5917 5915 5914 5913 5912 5912 5911 5910 5908 5907 5906 5905 5904 5903 5902 5901 5900 5899 5898 5897 5897 5896 5895 5894 5894 5893 5893 5893 5892 5892 5891 5891 5891 5891 5891 5890 5890 5889 5889 5888 5888 5888
5919 5919 5918 5919 5918 5917 5918 5916 5916 5914 5914 5913 5912 5911 5910 5909 5908 5907 5906 5905 5904 5903 5902 5901 5900 5899 5898 5897 5897 5896 5895 5894 5894 5893 5893 5892 5891 5891 5891 5890 5890 5889 5889 5889 5888 5887 5887 5886 5886
5919 5919 5919 5919 5918 5918 5917 5916 5916 5915 5914 5913 5912 5911 5911 5910 5909 5908 5906 5905 5904 5903 5902 5901 5900 5899 5898 5898 5897 5896 5895 5894 5894 5893 5892 5892 5891 5891 5890 5889 5889 5888 5888 5887 5887 5886 5885 5885 5884
5919 5919 5919 5919 5918 5918 5916 5916 5915 5914 5914 5913 5912 5911 5911 5910 5909 5908 5907 5905 5904 5904 5903 5902 5901 5900 5899 5898 5897 5896 5895 5895 5894 5893 5892 5892 5891 5890 5889 5889 5888 5887 5887 5886 5885 5885 5884 5883 5883
5918 5918 5918 5918 5918 5917 5916 5915 5914 5913 5913 5912 5912 5911 5910 5910 5909 5908 5906 5905 5904 5904 5903 5902 5901 5900 5899 5899 5898 5897 5896 5895 5894 5893 5892 5892 5891 5890 5889 5888 5887 5886 5885 5885 5884 5883 5882 5882 5881
5916 5917 5917 5917 5916 5916 5915 5914 5913 5913 5912 5911 5911 5910 5910 5909 5908 5907 5906 5905 5904 5903 5903 5902 5901 5900 5900 5899 5898 5897 5896 5895 5894 5893 5892 5891 5890 5889 5888 5887 5886 5885 5884 5883 5883 5882 5881 5880 5879
5914 5915 5915 5915 5915 5914 5915 5913 5913 5911 5911 5910 5910 5909 5908 5908 5907 5906 5905 5904 5904 5903 5902 5902 5901 5900 5899 5898 5897 5896 5895 5894 5893 5892 5891 5890 5889 5888 5887 5886 5885 5884 5883 5882 5881 5880 5879 5878 5877
5913 5914 5913 5913 5913 5913 5912 5912 5913 5910 5910 5909 5908 5907 5907 5906 5906 5905 5904 5903 5903 5902 5902 5901 5900 5899 5899 5898 5897 5896 5895 5894 5892 5891 5890 5889 5888 5887 5886 5885 5884 5883 5882 5880 5879 5878 5877 5876 5875
5911 5912 5911 5911 5911 5910 5910 5910 5910 5909 5908 5907 5907 5906 5906 5905 5905 5904 5903 5903 5902 5901 5900 5900 5899 5898 5897 5896 5895 5894 5893 5892 5891 5890 5889 5887 5886 5885 5884 5883 5882 5880 5879 5878 5877 5876 5875 5874 5873
5908 5909 5909 5908 5907 5908 5908 5907 5908 5907 5907 5905 5905 5904 5904 5904 5903 5903 5902 5901 5900 5900 5899 5898 5898 5897 5896 5895 5894 5892 5891 5890 5889 5888 5887 5885 5884 5883 5882 5880 5879 5878 5876 5875 5874 5873 5872 5871 5870
5904 5905 5906 5905 5905 5905 5905 5903 5905 5904 5904 5903 5902 5902 5901 5901 5901 5901 5900 5899 5898 5898 5897 5896 5896 5895 5894 5892 5891 5890 5889 5888 5886 5885 5884 5883 5882 5880 5879 5877 5876 5875 5874 5872 5871 5870 5869 5868 5867
5900 5901 5902 5902 5901 5901 5901 5901 5901 5901 5900 5900 5900 5899 5899 5899 5898 5898 5897 5897 5896 5895 5894 5893 5893 5892 5891 5889 5888 5887 5886 5885 5883 5882 5881 5879 5878 5877 5876 5875 5873 5872 5870 5869 5868 5867 5865 5864 5863
5897 5897 5898 5897 5897 5896 5897 5897 5898 5897 5896 5897 5896 5896 5896 5895 5895 5895 5894 5894 5893 5892 5891 5891 5890 5889 5888 5886 5885 5884 5883 5881 5880 5879 5877 5876 5875 5874 5873 5872 5870 5869 5867 5866 5864 5863 5862 5861 5860
5893 5893 5892 5893 5892 5892 5892 5895 5894 5894 5893 5893 5892 5892 5892 5892 5892 5891 5891 5890 5890 5889 5887 5887 5886 5885 5884 5883 5881 5880 5879 5878 5877 5875 5873 5871 5870 5869 5868 5868 5866 5865 5863 5862 5861 5859 5858 5857 5856
5887 5888 5888 5889 5888 5888 5888 5892 5890 5889 5888 5888 5888 5888 5887 5887 5887 5887 5886 5886 5885 5884 5884 5883 5881 5880 5879 5878 5877 5876 5875 5873 5872 5870 5868 5867 5866 5865 5864 5863 5862 5861 5859 5858 5856 5855 5854 5852 5851